IRIDIUM 148 (43255 NORAD) Tracking and Keplerian Element Data

This shows tracking and keplerian element data for the satellite.

Feedback or suggestion? Click here.




ElementValue
Catalog43255
NameIRIDIUM 148
Epoch Orbit422
Epoch Day118.48314811
Epoch Year2018
RAAN92.326
Inclination86.5225
Eccentricity0.000261
Argument of Perigee103.0142
Mean Anonmoly257.1357
Mean Motion14.55312983
Decay Rate7.3E-07
L11 43255U 18030G 18118.48314811 .00000073 00000-0 11982-4 0 9995
L22 43255 86.5225 92.3260 0002610 103.0142 257.1357 14.55312983 4220

Live tracking and technical data element details for IRIDIUM 148 (NORAD 43255). IRIDIUM 148 can be tracked NOW for your location showing map with azimuth and elevation plus other details from your city location.

Track the satellite on the map from your city or location and see movement details for azimuth, elevation, latitude, longitude, range, height, and movement on the map or in text.







IsCatalogInMostPopularTable: catalog: 43255, numindb: 64
Update: records affected: 1



GetName: 43255 IRIDIUM 148

Hit Count: updated at: Thu, 15 Nov 2018 03:42:28 GMT